QPF
0.02 0.03 0.05 0.09 0.14 0.20 0.25 0.28 0.30 0.31 0.32 0.30 0.25 0.20 0.17 0.17 0.19 0.17 0.17 0.19 0.21 0.21 0.22 0.25 0.23 0.20 0.18 0.17 0.17 0.14 0.11 0.09 0.08 0.07 0.06 0.06 0.04 0.04 0.05 0.07 0.08 0.10 0.12
0.02 0.03 0.05 0.08 0.12 0.17 0.24 0.36 0.43 0.46 0.46 0.46 0.42 0.36 0.35 0.33 0.32 0.30 0.28 0.30 0.33 0.34 0.33 0.31 0.28 0.26 0.24 0.22 0.18 0.15 0.11 0.10 0.10 0.09 0.08 0.05 0.03 0.03 0.04 0.06 0.08 0.10 0.11
0.03 0.04 0.05 0.07 0.13 0.24 0.32 0.46 0.60 0.63 0.63 0.60 0.57 0.49 0.44 0.41 0.34 0.28 0.29 0.33 0.38 0.39 0.42 0.42 0.38 0.33 0.28 0.22 0.17 0.16 0.14 0.12 0.12 0.12 0.10 0.07 0.04 0.03 0.02 0.03 0.05 0.06 0.07
0.05 0.05 0.05 0.07 0.12 0.21 0.29 0.44 0.65 0.78 0.81 0.79 0.73 0.63 0.49 0.43 0.38 0.33 0.32 0.34 0.35 0.35 0.35 0.37 0.34 0.28 0.22 0.18 0.16 0.14 0.12 0.09 0.09 0.10 0.09 0.08 0.07 0.05 0.04 0.03 0.04 0.04 0.04
0.06 0.05 0.06 0.09 0.11 0.15 0.21 0.31 0.52 0.68 0.72 0.75 0.74 0.72 0.62 0.49 0.42 0.38 0.35 0.33 0.32 0.31 0.30 0.28 0.24 0.21 0.20 0.18 0.14 0.12 0.10 0.09 0.07 0.06 0.06 0.06 0.06 0.06 0.06 0.05 0.05 0.05 0.05
0.06 0.06 0.07 0.08 0.09 0.12 0.19 0.27 0.40 0.51 0.56 0.56 0.55 0.56 0.54 0.47 0.41 0.34 0.28 0.27 0.27 0.27 0.25 0.24 0.20 0.17 0.15 0.13 0.11 0.10 0.11 0.11 0.09 0.06 0.06 0.05 0.05 0.05 0.06 0.08 0.07 0.07 0.07
0.06 0.06 0.06 0.07 0.08 0.10 0.15 0.21 0.28 0.37 0.48 0.56 0.60 0.59 0.57 0.49 0.42 0.35 0.30 0.27 0.26 0.27 0.27 0.24 0.19 0.15 0.13 0.12 0.10 0.09 0.07 0.06 0.04 0.03 0.03 0.03 0.03 0.03 0.04 0.04 0.04 0.05 0.05
0.07 0.06 0.06 0.07 0.07 0.08 0.09 0.11 0.15 0.23 0.32 0.37 0.42 0.44 0.45 0.41 0.33 0.30 0.28 0.28 0.28 0.26 0.23 0.17 0.12 0.09 0.08 0.06 0.05 0.04 0.03 0.03 0.02 0.02 0.02 0.01 0.01 0.01 0.02 0.03 0.04 0.05 0.05
0.05 0.05 0.05 0.06 0.06 0.06 0.07 0.09 0.10 0.12 0.16 0.19 0.20 0.23 0.26 0.24 0.22 0.23 0.23 0.21 0.20 0.18 0.14 0.09 0.05 0.03 0.03 0.02 0.02 0.02 0.01 0.01 0.01 0.01 0.01 0.01 0.01 0.01 0.01 0.01 0.01 0.02 0.04
0.05 0.05 0.04 0.04 0.04 0.04 0.05 0.06 0.07 0.10 0.11 0.10 0.10 0.12 0.14 0.15 0.15 0.15 0.16 0.13 0.09 0.06 0.04 0.03 0.02 0.01 0.01 0.01 0.01 0.00 0.00 0.00 0.00 0.00 0.00 0.00 0.01 0.01 0.01 0.01 0.01 0.01 0.03
0.06 0.04 0.03 0.04 0.04 0.04 0.04 0.05 0.06 0.06 0.06 0.07 0.08 0.07 0.08 0.08 0.09 0.08 0.07 0.06 0.04 0.03 0.02 0.01 0.01 0.01 0.01 0.00 0.00 0.00 0.00 0.00 0.00 0.00 0.00 0.01 0.01 0.01 0.02 0.02 0.02 0.02 0.02
0.05 0.04 0.03 0.03 0.03 0.02 0.02 0.03 0.03 0.04 0.05 0.05 0.05 0.04 0.04 0.04 0.04 0.03 0.02 0.02 0.02 0.01 0.01 0.01 0.01 0.01 0.01 0.01 0.00 0.00 0.00 0.00 0.00 0.00 0.01 0.01 0.01 0.01 0.01 0.02 0.02 0.02 0.02
0.07 0.05 0.04 0.03 0.03 0.02 0.02 0.02 0.02 0.02 0.03 0.03 0.03 0.02 0.02 0.01 0.01 0.01 0.01 0.01 0.02 0.01 0.01 0.01 0.01 0.00 0.00 0.00 0.00 0.00 0.00 0.00 0.00 0.00 0.00 0.00 0.00 0.00 0.00 0.00 0.00 0.00 0.01
0.08 0.06 0.05 0.04 0.03 0.02 0.02 0.02 0.02 0.02 0.02 0.02 0.02 0.01 0.01 0.01 0.01 0.01 0.01 0.01 0.01 0.00 0.00 0.00 0.00 0.00 0.00 0.00 0.00 0.00 0.00 0.00 0.00 0.00 0.00 0.00 0.00 0.00 0.00 0.00 0.00 0.00 0.00
0.10 0.07 0.06 0.06 0.04 0.03 0.02 0.02 0.02 0.02 0.02 0.01 0.01 0.01 0.01 0.01 0.01 0.00 0.00 0.00 0.00 0.00 0.00 0.00 0.00 0.00 0.00 0.00 0.00 0.00 0.00 0.00 0.00 0.00 0.00 0.00 0.00 0.00 0.00 0.00 0.00 0.00 0.00
0.12 0.10 0.07 0.05 0.04 0.03 0.02 0.02 0.01 0.01 0.01 0.01 0.01 0.01 0.01 0.00 0.00 0.00 0.00 0.00 0.00 0.00 0.00 0.00 0.00 0.00 0.00 0.00 0.00 0.00 0.00 0.00 0.00 0.00 0.00 0.00 0.00 0.00 0.00 0.00 0.00 0.00 0.00
0.10 0.10 0.11 0.08 0.05 0.03 0.02 0.01 0.01 0.00 0.00 0.00 0.00 0.00 0.00 0.00 0.00 0.00 0.00 0.00 0.00 0.00 0.00 0.00 0.00 0.00 0.00 0.00 0.00 0.00 0.00 0.00 0.00 0.00 0.00 0.00 0.00 0.00 0.00 0.00 0.00 0.00 0.00
0.07 0.06 0.06 0.06 0.05 0.03 0.01 0.01 0.00 0.00 0.00 0.00 0.00 0.00 0.00 0.00 0.00 0.00 0.00 0.00 0.00 0.00 0.00 0.00 0.00 0.00 0.00 0.00 0.00 0.00 0.00 0.00 0.00 0.00 0.00 0.00 0.00 0.00 0.00 0.00 0.00 0.00 0.00
0.09 0.07 0.04 0.02 0.02 0.02 0.02 0.01 0.01 0.00 0.00 0.00 0.00 0.00 0.00 0.00 0.00 0.00 0.00 0.00 0.00 0.00 0.00 0.00 0.00 0.00 0.00 0.00 0.00 0.00 0.00 0.00 0.00 0.00 0.00 0.00 0.00 0.00 0.00 0.00 0.00 0.00 0.00
0.12 0.08 0.05 0.02 0.01 0.01 0.01 0.01 0.00 0.00 0.00 0.00 0.00 0.00 0.00 0.00 0.00 0.00 0.00 0.00 0.00 0.00 0.00 0.00 0.00 0.00 0.00 0.00 0.00 0.00 0.00 0.00 0.00 0.00 0.00 0.00 0.00 0.00 0.00 0.00 0.00 0.00 0.00
0.08 0.07 0.06 0.04 0.02 0.02 0.01 0.01 0.00 0.00 0.00 0.00 0.00 0.00 0.00 0.00 0.00 0.00 0.00 0.00 0.00 0.00 0.00 0.00 0.00 0.00 0.00 0.00 0.00 0.00 0.00 0.00 0.00 0.00 0.00 0.00 0.00 0.00 0.00 0.00 0.00 0.00 0.00
0.05 0.05 0.05 0.03 0.02 0.02 0.01 0.01 0.01 0.00 0.00 0.00 0.00 0.00 0.00 0.00 0.00 0.00 0.00 0.00 0.00 0.00 0.00 0.00 0.00 0.00 0.00 0.00 0.00 0.00 0.00 0.00 0.00 0.00 0.00 0.01 0.01 0.00 0.00 0.00 0.00 0.00 0.01
0.04 0.05 0.04 0.03 0.02 0.01 0.01 0.01 0.00 0.00 0.00 0.00 0.00 0.00 0.00 0.00 0.00 0.00 0.00 0.00 0.00 0.00 0.00 0.00 0.00 0.00 0.00 0.00 0.00 0.00 0.00 0.00 0.00 0.00 0.01 0.01 0.01 0.00 0.00 0.00 0.00 0.01 0.01
0.03 0.03 0.03 0.02 0.01 0.01 0.01 0.00 0.00 0.00 0.00 0.00 0.00 0.00 0.00 0.00 0.00 0.00 0.00 0.00 0.00 0.00 0.00 0.00 0.00 0.00 0.00 0.00 0.00 0.00 0.00 0.00 0.00 0.00 0.00 0.00 0.00 0.00 0.00 0.00 0.00 0.00 0.01
0.02 0.02 0.01 0.01 0.01 0.01 0.01 0.00 0.00 0.00 0.00 0.00 0.00 0.00 0.00 0.00 0.00 0.00 0.00 0.00 0.00 0.00 0.00 0.00 0.00 0.00 0.00 0.00 0.00 0.00 0.00 0.00 0.00 0.00 0.00 0.00 0.00 0.00 0.00 0.00 0.00 0.00 0.00
0.01 0.01 0.00 0.00 0.00 0.01 0.00 0.00 0.00 0.00 0.00 0.00 0.00 0.00 0.00 0.00 0.00 0.00 0.00 0.00 0.00 0.00 0.00 0.00 0.00 0.00 0.00 0.00 0.00 0.00 0.00 0.00 0.01 0.01 0.00 0.00 0.00 0.00 0.00 0.00 0.00 0.00 0.00
MSLP
1010.36 1010.03 1009.75 1009.54 1009.42 1009.43 1009.57 1009.85 1010.24 1010.72 1011.24 1011.76 1012.24 1012.65 1012.98 1013.21 1013.39 1013.53 1013.68 1013.86 1014.12 1014.45 1014.85 1015.31 1015.79 1016.25 1016.66 1017.00 1017.26 1017.42 1017.51 1017.53 1017.50 1017.43 1017.35 1017.24 1017.13 1017.01 1016.89 1016.78 1016.69 1016.62 1016.59
1011.28 1010.98 1010.70 1010.45 1010.27 1010.18 1010.21 1010.37 1010.65 1011.04 1011.50 1011.97 1012.42 1012.81 1013.11 1013.32 1013.47 1013.58 1013.71 1013.89 1014.16 1014.52 1014.96 1015.48 1016.01 1016.53 1016.98 1017.34 1017.59 1017.74 1017.79 1017.77 1017.70 1017.61 1017.50 1017.40 1017.30 1017.21 1017.12 1017.04 1016.97 1016.92 1016.88
1012.23 1011.98 1011.73 1011.47 1011.24 1011.06 1010.97 1011.00 1011.16 1011.44 1011.80 1012.21 1012.62 1012.98 1013.28 1013.49 1013.64 1013.76 1013.90 1014.10 1014.39 1014.79 1015.28 1015.85 1016.44 1017.00 1017.49 1017.87 1018.13 1018.26 1018.29 1018.24 1018.15 1018.04 1017.93 1017.83 1017.75 1017.68 1017.62 1017.57 1017.52 1017.48 1017.43
1013.15 1012.99 1012.78 1012.53 1012.27 1012.01 1011.82 1011.72 1011.75 1011.90 1012.16 1012.50 1012.86 1013.20 1013.50 1013.74 1013.92 1014.08 1014.27 1014.51 1014.84 1015.28 1015.81 1016.42 1017.05 1017.65 1018.17 1018.57 1018.84 1018.98 1019.01 1018.96 1018.85 1018.73 1018.62 1018.53 1018.46 1018.41 1018.37 1018.34 1018.30 1018.26 1018.20
1014.04 1013.97 1013.83 1013.61 1013.33 1013.02 1012.73 1012.51 1012.41 1012.44 1012.59 1012.85 1013.17 1013.51 1013.83 1014.11 1014.35 1014.57 1014.81 1015.11 1015.48 1015.96 1016.52 1017.16 1017.80 1018.42 1018.96 1019.38 1019.67 1019.83 1019.87 1019.83 1019.74 1019.63 1019.53 1019.45 1019.38 1019.34 1019.31 1019.28 1019.24 1019.19 1019.13
1014.87 1014.91 1014.85 1014.68 1014.40 1014.06 1013.70 1013.38 1013.16 1013.08 1013.13 1013.32 1013.60 1013.94 1014.29 1014.63 1014.94 1015.24 1015.55 1015.90 1016.31 1016.81 1017.38 1018.00 1018.64 1019.25 1019.78 1020.22 1020.52 1020.71 1020.78 1020.77 1020.71 1020.63 1020.55 1020.47 1020.42 1020.37 1020.33 1020.29 1020.24 1020.18 1020.10
1015.65 1015.79 1015.82 1015.72 1015.47 1015.12 1014.72 1014.33 1014.02 1013.84 1013.82 1013.95 1014.21 1014.55 1014.94 1015.33 1015.72 1016.09 1016.46 1016.85 1017.29 1017.77 1018.32 1018.90 1019.49 1020.07 1020.58 1021.00 1021.32 1021.53 1021.64 1021.67 1021.65 1021.61 1021.55 1021.49 1021.44 1021.39 1021.34 1021.28 1021.21 1021.12 1021.02
1016.37 1016.62 1016.75 1016.72 1016.53 1016.20 1015.79 1015.37 1015.01 1014.77 1014.70 1014.78 1015.02 1015.37 1015.79 1016.24 1016.69 1017.12 1017.53 1017.94 1018.37 1018.82 1019.30 1019.81 1020.32 1020.82 1021.28 1021.67 1021.98 1022.21 1022.36 1022.44 1022.47 1022.46 1022.44 1022.40 1022.35 1022.29 1022.22 1022.14 1022.04 1021.94 1021.82
1017.04 1017.40 1017.63 1017.69 1017.57 1017.30 1016.92 1016.50 1016.13 1015.87 1015.76 1015.83 1016.06 1016.41 1016.85 1017.33 1017.82 1018.28 1018.71 1019.12 1019.51 1019.89 1020.28 1020.68 1021.09 1021.50 1021.87 1022.21 1022.50 1022.74 1022.91 1023.03 1023.11 1023.14 1023.15 1023.13 1023.08 1023.02 1022.93 1022.83 1022.71 1022.58 1022.45
1017.66 1018.11 1018.44 1018.60 1018.57 1018.38 1018.07 1017.70 1017.36 1017.11 1017.01 1017.07 1017.28 1017.64 1018.08 1018.57 1019.06 1019.53 1019.95 1020.32 1020.64 1020.94 1021.23 1021.51 1021.80 1022.09 1022.37 1022.64 1022.89 1023.12 1023.30 1023.46 1023.57 1023.64 1023.68 1023.68 1023.64 1023.57 1023.47 1023.35 1023.21 1023.06 1022.91
1018.23 1018.76 1019.18 1019.44 1019.52 1019.43 1019.21 1018.93 1018.66 1018.45 1018.37 1018.43 1018.64 1018.97 1019.40 1019.87 1020.34 1020.77 1021.15 1021.47 1021.73 1021.94 1022.12 1022.28 1022.45 1022.62 1022.81 1023.01 1023.21 1023.41 1023.60 1023.77 1023.91 1024.01 1024.07 1024.08 1024.04 1023.97 1023.86 1023.72 1023.56 1023.39 1023.22
1018.75 1019.34 1019.83 1020.18 1020.36 1020.39 1020.30 1020.12 1019.94 1019.80 1019.76 1019.83 1020.02 1020.32 1020.71 1021.13 1021.55 1021.93 1022.26 1022.51 1022.70 1022.83 1022.92 1022.99 1023.06 1023.14 1023.24 1023.37 1023.53 1023.70 1023.88 1024.04 1024.19 1024.30 1024.37 1024.39 1024.35 1024.27 1024.14 1023.99 1023.81 1023.62 1023.44
1019.22 1019.85 1020.39 1020.82 1021.10 1021.24 1021.27 1021.22 1021.14 1021.08 1021.07 1021.15 1021.32 1021.58 1021.90 1022.25 1022.60 1022.92 1023.19 1023.39 1023.53 1023.60 1023.64 1023.64 1023.65 1023.66 1023.71 1023.78 1023.89 1024.03 1024.18 1024.34 1024.48 1024.59 1024.65 1024.66 1024.62 1024.52 1024.38 1024.20 1024.01 1023.80 1023.59
1019.64 1020.28 1020.85 1021.33 1021.69 1021.94 1022.08 1022.15 1022.17 1022.19 1022.22 1022.31 1022.45 1022.65 1022.89 1023.16 1023.44 1023.69 1023.91 1024.07 1024.18 1024.24 1024.25 1024.24 1024.21 1024.20 1024.21 1024.25 1024.32 1024.43 1024.55 1024.68 1024.80 1024.89 1024.93 1024.92 1024.86 1024.75 1024.58 1024.39 1024.17 1023.94 1023.71
1020.01 1020.64 1021.21 1021.72 1022.14 1022.47 1022.71 1022.88 1023.00 1023.08 1023.15 1023.23 1023.34 1023.48 1023.64 1023.83 1024.03 1024.23 1024.40 1024.55 1024.66 1024.72 1024.76 1024.76 1024.75 1024.74 1024.73 1024.76 1024.80 1024.87 1024.96 1025.05 1025.13 1025.19 1025.20 1025.17 1025.08 1024.94 1024.75 1024.53 1024.29 1024.04 1023.79
1020.34 1020.93 1021.48 1021.99 1022.44 1022.83 1023.15 1023.41 1023.60 1023.73 1023.83 1023.91 1023.98 1024.06 1024.15 1024.27 1024.40 1024.55 1024.71 1024.86 1024.99 1025.09 1025.17 1025.22 1025.24 1025.25 1025.26 1025.27 1025.29 1025.32 1025.37 1025.42 1025.45 1025.46 1025.44 1025.37 1025.25 1025.08 1024.87 1024.63 1024.36 1024.09 1023.81
1020.63 1021.16 1021.67 1022.16 1022.63 1023.06 1023.43 1023.74 1023.99 1024.17 1024.28 1024.35 1024.39 1024.42 1024.46 1024.52 1024.61 1024.74 1024.89 1025.05 1025.22 1025.38 1025.51 1025.61 1025.68 1025.72 1025.74 1025.74 1025.74 1025.73 1025.73 1025.72 1025.70 1025.67 1025.60 1025.49 1025.34 1025.15 1024.91 1024.65 1024.36 1024.07 1023.77
1020.87 1021.35 1021.82 1022.28 1022.74 1023.19 1023.59 1023.94 1024.22 1024.43 1024.56 1024.63 1024.65 1024.65 1024.65 1024.68 1024.75 1024.86 1025.02 1025.21 1025.42 1025.63 1025.82 1025.97 1026.07 1026.13 1026.15 1026.13 1026.10 1026.05 1025.99 1025.93 1025.86 1025.77 1025.67 1025.52 1025.35 1025.13 1024.88 1024.60 1024.29 1023.98 1023.66
1021.09 1021.52 1021.95 1022.39 1022.83 1023.27 1023.69 1024.06 1024.36 1024.59 1024.73 1024.81 1024.83 1024.82 1024.81 1024.83 1024.89 1025.01 1025.19 1025.41 1025.65 1025.90 1026.12 1026.30 1026.42 1026.48 1026.48 1026.44 1026.36 1026.26 1026.15 1026.04 1025.92 1025.79 1025.64 1025.48 1025.28 1025.06 1024.79 1024.50 1024.18 1023.85 1023.51
1021.30 1021.69 1022.09 1022.50 1022.92 1023.35 1023.77 1024.15 1024.46 1024.71 1024.87 1024.96 1024.99 1025.00 1025.00 1025.03 1025.11 1025.25 1025.44 1025.68 1025.94 1026.20 1026.43 1026.61 1026.72 1026.77 1026.74 1026.66 1026.53 1026.38 1026.22 1026.06 1025.90 1025.74 1025.57 1025.39 1025.19 1024.96 1024.69 1024.40 1024.07 1023.73 1023.37
1021.51 1021.88 1022.25 1022.64 1023.05 1023.46 1023.87 1024.24 1024.57 1024.83 1025.01 1025.12 1025.19 1025.23 1025.26 1025.32 1025.43 1025.58 1025.79 1026.04 1026.30 1026.55 1026.77 1026.92 1027.00 1027.00 1026.94 1026.81 1026.64 1026.44 1026.24 1026.04 1025.85 1025.68 1025.50 1025.32 1025.12 1024.89 1024.63 1024.34 1024.01 1023.66 1023.29
1021.73 1022.09 1022.45 1022.82 1023.21 1023.60 1023.99 1024.36 1024.69 1024.95 1025.16 1025.31 1025.42 1025.50 1025.58 1025.68 1025.82 1026.00 1026.21 1026.45 1026.70 1026.92 1027.10 1027.21 1027.24 1027.20 1027.08 1026.91 1026.70 1026.48 1026.25 1026.03 1025.83 1025.65 1025.47 1025.30 1025.11 1024.89 1024.65 1024.36 1024.04 1023.68 1023.30
1021.95 1022.32 1022.67 1023.02 1023.39 1023.76 1024.13 1024.48 1024.80 1025.08 1025.31 1025.49 1025.65 1025.78 1025.92 1026.06 1026.23 1026.43 1026.65 1026.87 1027.09 1027.27 1027.39 1027.45 1027.43 1027.34 1027.18 1026.98 1026.75 1026.51 1026.27 1026.06 1025.86 1025.69 1025.53 1025.37 1025.19 1025.00 1024.76 1024.49 1024.17 1023.82 1023.43
1022.18 1022.55 1022.89 1023.23 1023.56 1023.91 1024.25 1024.58 1024.88 1025.16 1025.41 1025.64 1025.84 1026.02 1026.21 1026.40 1026.60 1026.81 1027.03 1027.23 1027.40 1027.53 1027.60 1027.61 1027.54 1027.41 1027.23 1027.02 1026.79 1026.55 1026.33 1026.14 1025.96 1025.81 1025.67 1025.53 1025.38 1025.20 1024.98 1024.72 1024.42 1024.07 1023.68
1022.40 1022.76 1023.09 1023.40 1023.71 1024.02 1024.32 1024.62 1024.91 1025.19 1025.45 1025.70 1025.94 1026.17 1026.40 1026.64 1026.86 1027.08 1027.29 1027.46 1027.60 1027.68 1027.71 1027.67 1027.57 1027.42 1027.24 1027.03 1026.82 1026.62 1026.43 1026.27 1026.14 1026.02 1025.90 1025.78 1025.65 1025.48 1025.28 1025.04 1024.74 1024.40 1024.03
1022.60 1022.94 1023.25 1023.53 1023.80 1024.07 1024.33 1024.59 1024.86 1025.13 1025.40 1025.67 1025.94 1026.21 1026.48 1026.74 1026.98 1027.21 1027.40 1027.55 1027.65 1027.70 1027.69 1027.62 1027.51 1027.36 1027.20 1027.02 1026.85 1026.70 1026.57 1026.45 1026.36 1026.28 1026.19 1026.09 1025.97 1025.83 1025.64 1025.40 1025.12 1024.79 1024.42
Thickness
5717 5724 5729 5734 5736 5737 5736 5733 5730 5729 5727 5723 5719 5715 5713 5713 5712 5712 5712 5712 5711 5710 5708 5706 5705 5703 5702 5701 5700 5698 5696 5694 5694 5692 5691 5692 5693 5693 5692 5692 5691 5690 5689
5705 5712 5718 5723 5726 5728 5728 5727 5726 5725 5722 5720 5717 5714 5709 5706 5705 5705 5705 5705 5706 5705 5704 5702 5700 5699 5697 5695 5694 5693 5691 5689 5688 5685 5682 5681 5684 5686 5685 5684 5683 5681 5680
5692 5699 5706 5711 5715 5716 5718 5718 5718 5718 5717 5715 5712 5708 5703 5700 5698 5697 5697 5697 5697 5697 5696 5695 5693 5691 5690 5687 5686 5686 5685 5682 5681 5679 5676 5673 5674 5675 5675 5673 5672 5671 5670
5682 5687 5693 5698 5702 5705 5709 5710 5709 5709 5710 5709 5706 5702 5698 5694 5693 5691 5688 5687 5686 5686 5685 5685 5684 5683 5681 5679 5678 5677 5676 5675 5673 5671 5670 5669 5668 5665 5665 5663 5662 5660 5658
5671 5675 5681 5686 5691 5695 5698 5701 5701 5700 5701 5701 5700 5695 5689 5685 5684 5682 5680 5677 5675 5674 5674 5673 5673 5672 5670 5669 5668 5667 5666 5664 5663 5661 5660 5660 5659 5658 5656 5654 5651 5649 5646
5660 5664 5669 5674 5678 5682 5685 5689 5689 5689 5689 5691 5690 5686 5681 5676 5673 5670 5668 5665 5663 5662 5662 5662 5661 5660 5659 5657 5656 5654 5654 5652 5651 5649 5648 5647 5646 5644 5644 5643 5640 5637 5633
5649 5653 5657 5660 5664 5668 5672 5675 5677 5676 5677 5678 5676 5674 5671 5666 5663 5659 5656 5655 5652 5649 5648 5650 5650 5648 5646 5644 5643 5642 5641 5640 5639 5637 5634 5632 5630 5629 5630 5629 5626 5623 5619
5639 5641 5643 5646 5650 5654 5658 5661 5663 5662 5662 5663 5661 5658 5656 5653 5650 5647 5644 5642 5639 5636 5635 5637 5636 5634 5633 5632 5631 5630 5627 5626 5625 5623 5621 5619 5616 5615 5614 5613 5612 5610 5605
5628 5629 5631 5633 5636 5640 5642 5645 5647 5647 5647 5648 5646 5643 5641 5639 5636 5632 5631 5629 5627 5625 5623 5624 5623 5622 5621 5619 5618 5616 5614 5612 5610 5608 5606 5604 5601 5600 5599 5597 5596 5595 5591
5616 5617 5618 5620 5622 5625 5627 5629 5633 5633 5631 5631 5630 5627 5625 5623 5622 5621 5618 5616 5614 5613 5612 5612 5611 5609 5607 5606 5605 5602 5600 5598 5595 5593 5591 5589 5586 5584 5583 5581 5579 5577 5574
5606 5606 5607 5608 5610 5612 5613 5615 5617 5617 5616 5616 5615 5613 5611 5610 5609 5607 5604 5603 5601 5599 5599 5597 5596 5594 5593 5592 5591 5588 5585 5583 5580 5578 5576 5573 5570 5568 5566 5564 5562 5558 5555
5597 5596 5596 5597 5598 5599 5599 5600 5601 5602 5601 5601 5600 5598 5597 5596 5595 5592 5590 5589 5587 5586 5585 5583 5582 5580 5579 5578 5576 5573 5571 5568 5565 5562 5560 5557 5554 5551 5548 5545 5542 5539 5535
5588 5587 5586 5585 5585 5585 5586 5587 5587 5587 5586 5586 5585 5584 5582 5581 5579 5577 5575 5574 5574 5572 5571 5569 5568 5566 5564 5562 5560 5558 5556 5553 5550 5547 5544 5541 5538 5535 5531 5528 5525 5521 5518
5581 5579 5577 5575 5574 5574 5573 5573 5572 5572 5572 5571 5570 5569 5567 5566 5565 5563 5562 5561 5560 5558 5557 5555 5553 5552 5551 5549 5546 5544 5542 5539 5536 5533 5530 5526 5523 5520 5516 5513 5509 5505 5501
5573 5569 5567 5564 5562 5561 5560 5559 5559 5558 5558 5558 5557 5555 5553 5553 5552 5551 5549 5548 5546 5545 5544 5543 5541 5539 5538 5535 5533 5530 5527 5525 5522 5519 5516 5513 5510 5507 5503 5499 5495 5491 5488
5565 5560 5556 5553 5551 5549 5548 5547 5546 5545 5545 5545 5543 5542 5541 5540 5539 5538 5537 5535 5534 5532 5532 5530 5528 5526 5524 5522 5520 5517 5514 5511 5508 5505 5502 5500 5497 5494 5491 5487 5484 5481 5477
5558 5553 5548 5544 5540 5538 5537 5536 5535 5534 5534 5533 5532 5531 5530 5529 5528 5528 5526 5525 5523 5521 5519 5517 5515 5513 5511 5509 5508 5505 5502 5499 5495 5492 5490 5488 5486 5483 5480 5478 5475 5472 5468
5551 5545 5539 5534 5531 5529 5527 5527 5526 5525 5524 5523 5522 5521 5520 5519 5518 5517 5516 5514 5513 5511 5509 5506 5504 5502 5500 5498 5496 5493 5491 5488 5485 5483 5480 5478 5476 5474 5472 5470 5468 5466 5463
5542 5536 5531 5527 5524 5521 5520 5519 5517 5516 5515 5513 5512 5511 5511 5510 5509 5508 5506 5505 5504 5502 5500 5497 5495 5492 5489 5488 5486 5484 5482 5480 5478 5475 5473 5471 5469 5467 5465 5464 5462 5461 5460
5533 5528 5523 5520 5516 5514 5512 5511 5509 5508 5507 5505 5504 5503 5503 5502 5500 5499 5498 5497 5495 5493 5491 5488 5486 5484 5481 5479 5477 5476 5475 5473 5472 5471 5469 5467 5465 5464 5462 5461 5458 5458 5457
5526 5521 5517 5513 5509 5507 5505 5503 5501 5499 5498 5498 5497 5495 5494 5493 5492 5490 5489 5488 5487 5485 5483 5480 5478 5476 5474 5472 5471 5470 5469 5468 5467 5466 5465 5464 5463 5462 5461 5459 5457 5455 5453
5519 5514 5510 5505 5502 5500 5499 5495 5493 5492 5491 5490 5489 5487 5486 5486 5484 5483 5481 5480 5479 5477 5475 5473 5471 5469 5468 5467 5466 5466 5465 5464 5463 5462 5461 5460 5460 5460 5460 5458 5456 5454 5453
5513 5508 5504 5499 5496 5494 5493 5489 5487 5486 5485 5483 5481 5480 5479 5477 5476 5476 5474 5472 5471 5470 5468 5466 5465 5464 5464 5464 5463 5463 5462 5462 5460 5459 5458 5458 5458 5458 5457 5455 5454 5453 5452
5507 5502 5498 5494 5490 5488 5487 5484 5482 5481 5479 5476 5474 5473 5471 5470 5469 5469 5468 5467 5465 5464 5463 5462 5461 5460 5460 5461 5460 5460 5460 5459 5459 5457 5457 5457 5456 5455 5453 5452 5450 5449 5447
5501 5497 5493 5489 5486 5484 5482 5480 5478 5476 5473 5471 5469 5467 5465 5464 5463 5462 5461 5461 5459 5459 5459 5458 5457 5456 5457 5457 5456 5456 5456 5456 5455 5454 5454 5452 5450 5449 5448 5447 5446 5446 5445
5497 5493 5489 5485 5483 5480 5478 5476 5474 5472 5469 5466 5464 5462 5460 5458 5457 5457 5456 5456 5456 5456 5456 5455 5454 5454 5454 5454 5455 5454 5454 5453 5452 5451 5447 5445 5443 5442 5441 5441 5441 5441 5441